324  
SXUS52 KCHS 201827  
OSOCHS  
 
MARINE OBSERVATIONS  
NATIONAL WEATHER SERVICE CHARLESTON SC  
200 PM EDT SAT APR 20 2019  
   
..DOWNTOWN CHARLESTON AND HARBOR
 
 
 
CITY SKY/WX TMP DP RH WIND PRES REMARKS  
WATERFRONT PRK N/A 62 48 60 SW13G24 29.68S  
   
..LAKE MOULTRIE
 
 
 
CITY SKY/WX TMP DP RH WIND PRES REMARKS  
PINOPOLIS N/A 61 48 63 SW15G25 29.72S  
   
..LAKE AND SUPPLEMENTAL COASTAL OBSERVATIONS
 
 
 
STATION/POSITION TIME TEMP WIND PRES WAVE SWELL  
AIR SEA DIR/SP/G HT/PER HT/PER/DIR  
(UTC) (F) (DEG/KT/KT) (MB) (FT/S) (FT/S/D)  
FORT PULASKI 1800 61 68 280/ 16/ 21 1011.3  
SAPELO ISLAND 1800 64 240/ 20 1012.0  
WINYAH BAY 1745 63 210/ 22 1009.0S  
LAKE MURRAY 1720 52 230/ 13/ 21 1007.8S  
ACE BASIN NERRS 1730 64 230/ 6 1010.0S  
 
   
..C-MAN AND BUOY OBSERVATIONS
 
 
 
STATION/POSITION TIME TEMP WIND PRES WAVE SWELL  
AIR SEA DIR/SP/G HT/PER HT/PER/DIR  
(UTC) (F) (DEG/KT/KT) (MB) (FT/S) (FT/S/D)  
BUOY 41004 1810 65 72 210/ 27/ 33 1011.0  
BUOY 41008 1750 62 67 250/ 19/ 23 1011.8F 4/ 5 2/110/ 8  
FOLLY BEACH CMAN 1800 62 220/ 22/ 29 1010.7S  
PRITCHARDS ISLAN NOT AVBL  
CAPERS NS BUOY 1808 61 68 230/ 23/ 33 1010.0F  
FRIPP NS BUOY NOT AVBL  
5E ST. MARYS GA 1800 67 N/A 3/ 4  
 
 
STATION/POSITION TIME TEMP WIND PRES WAVE SWELL  
AIR SEA DIR/SP/G HT/PER HT/PER/DIR  
(UTC) (F) (DEG/KT/KT) (MB) (FT/S) (FT/S/D)  
FRYING PAN BUOY 1810 65 210/ 17/ 21 1011.1  
BUOY 41025 NOT AVBL  
CAPE LOOKOUT NC 1800 65 240/ 12/ 15 1010.8F  
BUOY 41002 1810 240/ 19/ 27 1014.4  
BUOY 41010 1810 72 78 250/ 19/ 25 1014.9  
ST AUGUSTINE FL 1800 67 72 270/ 14/ 20 1014.2F  
 

 
 
 
CLICK HERE TO GO TO PREVIOUS BULLETINS.

The Nexlab SC Page
The Nexlab GA Page Main Text Page